Temp     Hi    Low   Out    Dew  Wind  Wind   Wind    Hi    Hi   Wind   Heat    THW                Rain    Heat    Cool    In     In    In     In     In   In Air   Temp  Wind  Wind    ISS   Arc.
  Date    Time     Out   Temp   Temp   Hum    Pt. Speed   Dir    Run Speed   Dir  Chill  Index  Index   Bar    Rain  Rate    D-D     D-D    Temp   Hum    Dew   Heat    EMC Density    2nd  Samp   Tx   Recept  Int.
----------------------------------------------------------------------------------------------------------------------------------------------------------------------------------------------------------------------
20/02/19 12:10a   15.4   15.4   15.4    76   11.2   0.0   ---   0.00   0.0   ---   15.4   15.2   15.2  1009.8  0.00   0.0   0.020   0.000   21.8    47   10.0   20.9   8.75 1.1789    41.7     0    2      0.0   10 
20/02/19 12:20a   15.4   15.4   15.4    76   11.2   0.0   ---   0.00   0.0   ---   15.4   15.2   15.2  1009.6  0.00   0.0   0.020   0.000   21.7    47    9.9   20.7   8.75 1.1792    41.7     0    2      0.0   10 
20/02/19 12:30a   15.4   15.4   15.4    76   11.2   0.0   ---   0.00   0.0   ---   15.4   15.2   15.2  1009.6  0.00   0.0   0.020   0.000   21.7    47    9.9   20.7   8.75 1.1792    41.7     0    2      0.0   10 
20/02/19 12:40a   15.4   15.4   15.4    76   11.2   0.0   ---   0.00   0.0   ---   15.4   15.2   15.2  1009.6  0.00   0.0   0.020   0.000   21.6    47    9.8   20.6   8.75 1.1797    41.7     0    2      0.0   10 
20/02/19 12:50a   15.4   15.4   15.4    76   11.2   0.0   ---   0.00   0.0   ---   15.4   15.2   15.2  1009.4  0.00   0.0   0.020   0.000   21.6    47    9.8   20.6   8.75 1.1795    41.7     0    2      0.0   10 
20/02/19  1:00a   15.4   15.4   15.4    76   11.2   0.0   ---   0.00   0.0   ---   15.4   15.2   15.2  1009.2  0.00   0.0   0.020   0.000   21.5    48   10.0   20.6   8.86 1.1793    41.7     0    2      0.0   10 
20/02/19  1:10a   15.4   15.4   15.4    76   11.2   0.0   ---   0.00   0.0   ---   15.4   15.2   15.2  1009.2  0.00   0.0   0.020   0.000   21.3    48    9.8   20.3   8.86 1.1804    41.7     0    2      0.0   10 
20/02/19  1:20a   15.4   15.4   15.4    76   11.2   0.0   ---   0.00   0.0   ---   15.4   15.2   15.2  1009.0  0.00   0.0   0.020   0.000   21.3    48    9.8   20.3   8.86 1.1802    41.7     0    2      0.0   10 
20/02/19  1:30a   15.4   15.4   15.4    76   11.2   0.0   ---   0.00   0.0   ---   15.4   15.2   15.2  1009.0  0.00   0.0   0.020   0.000   21.2    48    9.8   20.2   8.85 1.1804    41.7     0    2      0.0   10 
20/02/19  1:40a   15.4   15.4   15.4    76   11.2   0.0   ---   0.00   0.0   ---   15.4   15.2   15.2  1009.0  0.00   0.0   0.020   0.000   21.4    48    9.9   20.4   8.86 1.1796    41.7     0    2      0.0   10 
20/02/19  1:50a   15.4   15.4   15.4    76   11.2   0.0   ---   0.00   0.0   ---   15.4   15.2   15.2  1008.8  0.00   0.0   0.020   0.000   21.4    48    9.9   20.4   8.86 1.1794    41.7     0    2      0.0   10 
20/02/19  2:00a   15.3   15.4   15.3    76   11.1   0.0   ---   0.00   0.0   ---   15.3   15.1   15.1  1008.7  0.00   0.0   0.021   0.000   21.4    48    9.9   20.4   8.86 1.1792    41.7     0    2      0.0   10 
20/02/19  2:10a   15.2   15.3   15.2    77   11.2   0.0   ---   0.00   0.0   ---   15.2   15.1   15.1  1008.7  0.00   0.0   0.022   0.000   21.1    48    9.7   20.1   8.85 1.1806    41.7     0    2      0.0   10 
20/02/19  2:20a   15.2   15.2   15.2    77   11.2   0.0   ---   0.00   0.0   ---   15.2   15.1   15.1  1008.6  0.00   0.0   0.022   0.000   21.1    49   10.0   20.1   9.05 1.1801    41.7     0    2      0.0   10 
20/02/19  2:30a   15.2   15.2   15.2    76   11.0   0.0   ---   0.00   0.0   ---   15.2   15.0   15.0  1008.3  0.00   0.0   0.022   0.000   21.0    49    9.9   20.1   9.05 1.1804    41.7     0    2      0.0   10 
20/02/19  2:40a   15.3   15.3   15.2    77   11.3   0.0   ---   0.00   0.0   ---   15.3   15.2   15.2  1008.3  0.00   0.0   0.021   0.000   21.0    49    9.9   20.1   9.05 1.1804    41.7     0    2      0.0   10 
20/02/19  2:50a   15.3   15.3   15.3    77   11.3   0.0   ---   0.00   0.0   ---   15.3   15.2   15.2  1008.2  0.00   0.0   0.021   0.000   21.0    49    9.9   20.1   9.05 1.1803    41.7     0    2      0.0   10 
20/02/19  3:00a   15.3   15.3   15.3    77   11.3   0.0   ---   0.00   0.0   ---   15.3   15.2   15.2  1008.1  0.00   0.0   0.021   0.000   21.0    49    9.9   20.1   9.05 1.1801    41.7     0    2      0.0   10 
20/02/19  3:10a   15.3   15.3   15.3    77   11.3   0.0   ---   0.00   0.0   ---   15.3   15.2   15.2  1008.1  0.00   0.0   0.021   0.000   21.1    49   10.0   20.1   9.05 1.1796    41.7     0    2      0.0   10 
20/02/19  3:20a   15.3   15.3   15.3    77   11.3   0.0   ---   0.00   0.0   ---   15.3   15.2   15.2  1008.0  0.00   0.0   0.021   0.000   21.1    49   10.0   20.1   9.05 1.1795    41.7     0    2      0.0   10 
20/02/19  3:30a   15.3   15.3   15.3    77   11.3   0.0   ---   0.00   0.0   ---   15.3   15.2   15.2  1008.0  0.00   0.0   0.021   0.000   21.1    49   10.0   20.1   9.05 1.1795    41.7     0    2      0.0   10 
20/02/19  3:40a   15.3   15.3   15.3    77   11.3   0.0   ---   0.00   0.0   ---   15.3   15.2   15.2  1008.0  0.00   0.0   0.021   0.000   21.3    49   10.1   20.3   9.05 1.1787    41.7     0    2      0.0   10 
20/02/19  3:50a   15.3   15.3   15.3    77   11.3   0.0   ---   0.00   0.0   ---   15.3   15.2   15.2  1008.0  0.00   0.0   0.021   0.000   21.4    49   10.2   20.5   9.05 1.1781    41.7     0    2      0.0   10 
20/02/19  4:00a   15.3   15.3   15.3    77   11.3   0.0   ---   0.00   0.0   ---   15.3   15.2   15.2  1007.9  0.00   0.0   0.021   0.000   21.4    49   10.2   20.5   9.05 1.1779    41.7     0    2      0.0   10 
20/02/19  4:10a   15.2   15.3   15.2    77   11.2   0.0   ---   0.00   0.0   ---   15.2   15.1   15.1  1007.9  0.00   0.0   0.022   0.000   21.3    49   10.1   20.3   9.05 1.1785    41.7     0    2      0.0   10 
20/02/19  4:20a   15.2   15.2   15.2    77   11.2   0.0   ---   0.00   0.0   ---   15.2   15.1   15.1  1008.0  0.00   0.0   0.022   0.000   21.0    49    9.9   20.1   9.05 1.1800    41.7     0    2      0.0   10 
20/02/19  4:30a   15.2   15.3   15.2    77   11.2   0.0   ---   0.00   0.0   ---   15.2   15.1   15.1  1007.8  0.00   0.0   0.022   0.000   21.0    50   10.2   20.1   9.25 1.1794    41.7     0    2      0.0   10 
20/02/19  4:40a   15.2   15.2   15.2    77   11.2   0.0   ---   0.00   0.0   ---   15.2   15.1   15.1  1007.8  0.00   0.0   0.022   0.000   20.8    50   10.0   19.9   9.26 1.1802    41.7     0    2      0.0   10 
20/02/19  4:50a   15.2   15.2   15.2    77   11.2   0.0   ---   0.00   0.0   ---   15.2   14.9   14.9  1007.7  0.00   0.0   0.022   0.000   20.8    50   10.0   19.9   9.26 1.1802    41.7     0    2      0.0   10 
20/02/19  5:00a   15.2   15.2   15.2    78   11.4   0.0   ---   0.00   0.0   ---   15.2   15.0   15.0  1007.8  0.00   0.0   0.022   0.000   20.8    50   10.0   19.9   9.26 1.1803    41.7     0    2      0.0   10 
20/02/19  5:10a   15.2   15.2   15.2    78   11.4   0.0   ---   0.00   0.0   ---   15.2   15.0   15.0  1007.8  0.00   0.0   0.022   0.000   20.6    51   10.1   19.9   9.47 1.1811    41.7     0    2      0.0   10 
20/02/19  5:20a   15.1   15.2   15.1    78   11.2   0.0   ---   0.00   0.0   ---   15.1   14.9   14.9  1008.3  0.00   0.0   0.023   0.000   20.6    51   10.1   19.9   9.47 1.1817    41.7     0    2      0.0   10 
20/02/19  5:30a   15.1   15.1   15.1    78   11.2   0.0   ---   0.00   0.0   ---   15.1   14.9   14.9  1008.5  0.00   0.0   0.023   0.000   20.6    51   10.1   19.9   9.47 1.1820    41.7     0    2      0.0   10 
20/02/19  5:40a   15.1   15.1   15.1    78   11.2   0.0   ---   0.00   0.0   ---   15.1   14.9   14.9  1008.5  0.00   0.0   0.023   0.000   20.6    52   10.4   19.9   9.67 1.1820    41.7     0    2      0.0   10 
20/02/19  5:50a   15.1   15.1   15.1    78   11.2   0.0   ---   0.00   0.0   ---   15.1   14.9   14.9  1008.5  0.00   0.0   0.023   0.000   20.4    52   10.3   19.8   9.67 1.1825    41.7     0    2      0.0   10 
20/02/19  6:00a   15.1   15.1   15.1    78   11.2   0.0   ---   0.00   0.0   ---   15.1   14.9   14.9  1008.5  0.00   0.0   0.023   0.000   20.4    52   10.3   19.8   9.67 1.1825    41.7     0    2      0.0   10 
20/02/19  6:10a   15.1   15.1   15.1    78   11.2   0.0   ---   0.00   0.0   ---   15.1   14.9   14.9  1008.5  0.00   0.0   0.023   0.000   20.3    52   10.1   19.7   9.68 1.1830    41.7     0    2      0.0   10 
20/02/19  6:20a   15.1   15.1   15.1    78   11.2   0.0   ---   0.00   0.0   ---   15.1   14.9   14.9  1008.6  0.00   0.0   0.023   0.000   20.3    52   10.1   19.6   9.68 1.1834    41.7     0    2      0.0   10 
20/02/19  6:30a   15.2   15.2   15.1    79   11.5   0.0   ---   0.00   0.0   ---   15.2   15.1   15.1  1008.7  0.00   0.0   0.022   0.000   20.3    52   10.1   19.7   9.68 1.1833    41.7     0    2      0.0   10 
20/02/19  6:40a   15.2   15.2   15.2    79   11.5   0.0   ---   0.00   0.0   ---   15.2   15.1   15.1  1008.7  0.00   0.0   0.022   0.000   20.4    52   10.3   19.8   9.67 1.1827    41.7     0    2      0.0   10 
20/02/19  6:50a   15.2   15.2   15.2    79   11.5   0.0   ---   0.00   0.0   ---   15.2   15.1   15.1  1008.8  0.00   0.0   0.022   0.000   20.4    52   10.3   19.8   9.67 1.1829    41.7     0    2      0.0   10 
20/02/19  7:00a   15.2   15.2   15.2    79   11.5   0.0   ---   0.00   0.0   ---   15.2   15.1   15.1  1008.9  0.00   0.0   0.022   0.000   20.6    52   10.4   19.9   9.67 1.1824    41.7     0    2      0.0   10 
20/02/19  7:10a   15.2   15.2   15.2    79   11.5   0.0   ---   0.00   0.0   ---   15.2   15.1   15.1  1008.9  0.00   0.0   0.022   0.000   20.6    53   10.7   19.9   9.87 1.1818    41.7     0    2      0.0   10 
20/02/19  7:20a   15.2   15.2   15.2    79   11.6   0.0   ---   0.00   0.0   ---   15.2   15.1   15.1  1010.0  0.00   0.0   0.022   0.000   20.6    53   10.7   19.9   9.87 1.1831    41.7     0    2      0.0   10 
20/02/19  7:30a   15.3   15.3   15.2    79   11.7   0.0   ---   0.00   0.0   ---   15.3   15.2   15.2  1009.9  0.00   0.0   0.021   0.000   20.8    53   10.9   20.1   9.86 1.1819    41.7     0    2      0.0   10 
20/02/19  7:40a   15.3   15.3   15.3    79   11.7   0.0   ---   0.00   0.0   ---   15.3   15.2   15.2  1009.9  0.00   0.0   0.021   0.000   20.8    53   10.9   20.1   9.86 1.1819    41.7     0    2      0.0   10 
20/02/19  7:50a   15.4   15.4   15.3    78   11.6   0.0   ---   0.00   0.0   ---   15.4   15.3   15.3  1010.0  0.00   0.0   0.020   0.000   21.0    52   10.8   20.2   9.65 1.1814    41.7     0    2      0.0   10 
20/02/19  8:00a   15.5   15.5   15.4    78   11.7   0.0   ---   0.00   0.0   ---   15.5   15.4   15.4  1010.2  0.00   0.0   0.020   0.000   20.7    52   10.5   20.0   9.66 1.1831    41.7     0    2      0.0   10 
20/02/19  8:10a   15.6   15.6   15.5    78   11.7   0.0   ---   0.00   0.0   ---   15.6   15.4   15.4  1010.2  0.00   0.0   0.019   0.000   20.8    53   10.9   20.1   9.86 1.1823    41.7     0    2      0.0   10 
20/02/19  8:20a   15.7   15.7   15.6    78   11.8   0.0   ---   0.00   0.0   ---   15.7   15.6   15.6  1010.7  0.00   0.0   0.019   0.000   20.9    52   10.7   20.2   9.66 1.1826    41.7     0    2      0.0   10 
20/02/19  8:30a   15.8   15.8   15.7    77   11.8   0.0   ---   0.00   0.0   ---   15.8   15.7   15.7  1010.7  0.00   0.0   0.017   0.000   20.8    53   10.9   20.1   9.86 1.1828    41.7     0    2      0.0   10 
20/02/19  8:40a   16.1   16.1   15.8    77   12.1   0.0   ---   0.00   0.0   ---   16.1   16.0   16.0  1010.7  0.00   0.0   0.015   0.000   20.6    53   10.7   19.9   9.87 1.1839    41.7     0    2      0.0   10 
20/02/19  8:50a   16.1   16.1   16.1    76   11.9   0.0   ---   0.00   0.0   ---   16.1   16.0   16.0  1010.7  0.00   0.0   0.015   0.000   20.4    54   10.8   19.9  10.00 1.1845    41.7     0    2      0.0   10 
20/02/19  9:00a   16.3   16.3   16.1    75   11.8   0.0   ---   0.00   0.0   ---   16.3   16.1   16.1  1010.9  0.00   0.0   0.014   0.000   20.6    54   11.0   20.0   9.99 1.1840    41.7     0    2      0.0   10 
20/02/19  9:10a   16.4   16.4   16.3    75   12.0   0.0   ---   0.00   0.0   ---   16.4   16.3   16.3  1010.9  0.00   0.0   0.013   0.000   20.8    53   10.9   20.1   9.86 1.1831    41.7     0    2      0.0   10 
20/02/19  9:20a   16.5   16.5   16.4    75   12.1   0.0   ---   0.00   0.0   ---   16.5   16.4   16.4  1011.0  0.00   0.0   0.013   0.000   20.7    53   10.8   20.1   9.86 1.1838    41.7     0    2      0.0   10 
20/02/19  9:30a   16.7   16.7   16.5    74   12.1   0.0   ---   0.00   0.0   ---   16.7   16.6   16.6  1011.0  0.00   0.0   0.011   0.000   20.7    54   11.1   20.1   9.98 1.1835    41.7     0    2      0.0   10 
20/02/19  9:40a   16.9   16.9   16.7    74   12.3   0.0   ---   0.00   0.0   ---   16.9   16.8   16.8  1011.0  0.00   0.0   0.010   0.000   21.0    53   11.1   20.2   9.85 1.1824    41.7     0    2      0.0   10 
20/02/19  9:50a   17.3   17.3   16.9    72   12.2   0.0   ---   0.00   0.0   ---   17.3   17.2   17.2  1010.9  0.00   0.0   0.007   0.000   21.2    52   11.0   20.4   9.65 1.1815    41.7     0    2      0.0   10 
20/02/19 10:00a   17.7   17.7   17.3    71   12.3   0.0   ---   0.00   0.0   ---   17.7   17.6   17.6  1010.8  0.00   0.0   0.005   0.000   21.4    52   11.1   20.6   9.64 1.1806    41.7     0    2      0.0   10 
20/02/19 10:10a   17.9   17.9   17.7    71   12.6   0.0   ---   0.00   0.0   ---   17.9   17.9   17.9  1010.8  0.00   0.0   0.003   0.000   21.6    52   11.3   20.8   9.63 1.1797    41.7     0    2      0.0   10 
20/02/19 10:20a   18.1   18.1   17.9    70   12.6   0.0   ---   0.00   0.0   ---   18.1   18.1   18.1  1010.9  0.00   0.0   0.002   0.000   21.8    51   11.2   21.2   9.42 1.1787    41.7     0    2      0.0   10 
20/02/19 10:30a   18.4   18.4   18.1    71   13.0   0.0   ---   0.00   0.0   ---   18.4   18.4   18.4  1010.9  0.00   0.0   0.000   0.000   22.1    51   11.4   21.5   9.42 1.1776    41.7     0    2      0.0   10 
20/02/19 10:40a   18.7   18.7   18.4    68   12.6   0.0   ---   0.00   0.0   ---   18.7   18.7   18.7  1010.9  0.00   0.0   0.000   0.002   22.2    51   11.5   21.7   9.41 1.1771    41.7     0    2      0.0   10 
20/02/19 10:50a   18.7   18.7   18.6    68   12.6   0.0   ---   0.00   0.0   ---   18.7   18.7   18.7  1010.9  0.00   0.0   0.000   0.002   22.2    51   11.6   21.8   9.41 1.1768    41.7     0    2      0.0   10 
20/02/19 11:00a   19.4   19.4   18.7    68   13.3   0.0   ---   0.00   0.0   ---   19.4   19.5   19.5  1010.7  0.00   0.0   0.000   0.007   22.3    51   11.7   21.9   9.41 1.1761    41.7     0    2      0.0   10 
20/02/19 11:10a   19.3   19.4   19.2    68   13.2   0.0   ---   0.00   0.0   ---   19.3   19.4   19.4  1010.7  0.00   0.0   0.000   0.007   22.4    52   12.1   22.1   9.60 1.1752    41.7     0    2      0.0   10 
20/02/19 11:20a   19.6   19.6   19.3    68   13.5   0.0   ---   0.00   0.0   ---   19.6   19.7   19.7  1010.7  0.00   0.0   0.000   0.008   22.6    51   12.0   22.3   9.40 1.1746    41.7     0    2      0.0   10 
20/02/19 11:30a   19.8   19.8   19.6    67   13.5   0.0   ---   0.00   0.0   ---   19.8   20.0   20.0  1010.4  0.00   0.0   0.000   0.010   22.6    51   12.0   22.3   9.40 1.1743    41.7     0    2      0.0   10 
20/02/19 11:40a   20.1   20.1   19.8    66   13.6   0.0   ---   0.00   0.0   ---   20.1   20.2   20.2  1010.4  0.00   0.0   0.000   0.012   22.6    52   12.3   22.4   9.60 1.1740    41.7     0    2      0.0   10 
20/02/19 11:50a   20.6   20.6   20.1    64   13.5   0.0   ---   0.00   0.0   ---   20.6   20.4   20.4  1010.3  0.00   0.0   0.000   0.015   22.7    52   12.4   22.6   9.59 1.1732    41.7     0    2      0.0   10 
20/02/19 12:00p   21.2   21.2   20.6    63   13.9   0.0   ---   0.00   0.0   ---   21.2   20.9   20.9  1009.8  0.00   0.0   0.000   0.020   22.8    52   12.5   22.7   9.59 1.1721    41.7     0    2      0.0   10 
20/02/19 12:10p   21.3   21.4   21.2    63   14.0   0.0   ---   0.00   0.0   ---   21.3   21.1   21.1  1009.8  0.00   0.0   0.000   0.021   22.9    52   12.5   22.7   9.59 1.1718    41.7     0    2      0.0   10 
20/02/19 12:20p   21.1   21.3   21.1    64   14.0   0.0   ---   0.00   0.0   ---   21.1   20.8   20.8  1009.6  0.00   0.0   0.000   0.019   22.7    52   12.4   22.6   9.59 1.1725    41.7     0    2      0.0   10 
20/02/19 12:30p   21.4   21.4   20.9    63   14.1   0.0   ---   0.00   0.0   ---   21.4   21.2   21.2  1009.2  0.00   0.0   0.000   0.021   22.9    52   12.5   22.7   9.59 1.1712    41.7     0    2      0.0   10 
20/02/19 12:40p   21.9   21.9   21.4    61   14.0   0.0   ---   0.00   0.0   ---   21.9   21.7   21.7  1009.2  0.00   0.0   0.000   0.025   23.3    52   12.9   23.2   9.57 1.1693    41.7     0    2      0.0   10 
20/02/19 12:50p   22.3   22.3   21.9    60   14.2   0.0   ---   0.00   0.0   ---   22.3   22.3   22.3  1008.9  0.00   0.0   0.000   0.028   23.5    52   13.1   23.5   9.56 1.1678    41.7     0    2      0.0   10 
20/02/19  1:00p   23.3   23.3   22.4    53   13.2   0.0   ---   0.00   0.0   ---   23.3   23.3   23.3  1008.6  0.00   0.0   0.000   0.035   23.9    50   12.8   23.9   9.25 1.1662    41.7     0    2      0.0   10 
20/02/19  1:10p   23.7   23.7   23.3    54   13.9   0.0   ---   0.00   0.0   ---   23.7   23.9   23.9  1008.6  0.00   0.0   0.000   0.037   24.2    49   12.8   24.2   9.04 1.1651    41.7     0    2      0.0   10 
20/02/19  1:20p   24.9   24.9   23.7    47   12.8   0.0   ---   0.00   0.0   ---   24.9   24.7   24.7  1008.2  0.00   0.0   0.000   0.046   24.6    47   12.5   24.4   8.73 1.1635    41.7     0    2      0.0   10 
20/02/19  1:30p   25.4   25.4   24.9    48   13.6   0.0   ---   0.00   0.0   ---   25.4   25.3   25.3  1007.9  0.00   0.0   0.000   0.049   24.9    45   12.2   24.7   8.41 1.1619    41.7     0    2      0.0   10 
20/02/19  1:40p   25.4   25.4   25.4    46   13.0   0.0   ---   0.00   0.0   ---   25.4   25.3   25.3  1007.9  0.00   0.0   0.000   0.049   25.2    44   12.1   24.9   8.20 1.1610    41.7     0    2      0.0   10 
20/02/19  1:50p   26.1   26.1   25.4    42   12.1   0.0   ---   0.00   0.0   ---   26.1   25.7   25.7  1007.7  0.00   0.0   0.000   0.054   25.6    42   11.7   25.2   7.89 1.1599    41.7     0    2      0.0   10 
20/02/19  2:00p   26.5   26.5   26.1    39   11.4   0.0   ---   0.00   0.0   ---   26.5   25.9   25.9  1007.6  0.00   0.0   0.000   0.057   25.8    39   10.8   25.3   7.48 1.1595    41.7     0    2      0.0   10 
20/02/19  2:10p   26.7   26.7   26.4    37   10.8   0.0   ---   0.00   0.0   ---   26.7   25.9   25.9  1007.6  0.00   0.0   0.000   0.058   26.2    38   10.7   25.6   7.27 1.1583    41.7     0    2      0.0   10 
20/02/19  2:20p   27.1   27.1   26.7    34    9.9   0.0   ---   0.00   0.0   ---   27.1   26.2   26.2  1007.4  0.00   0.0   0.000   0.061   26.3    36   10.1   25.7   6.96 1.1581    41.7     0    2      0.0   10 
20/02/19  2:30p   27.8   27.8   27.2    38   12.2   0.0   ---   0.00   0.0   ---   27.8   27.3   27.3  1007.0  0.00   0.0   0.000   0.066   26.6    36   10.3   25.8   6.95 1.1566    41.7     0    2      0.0   10 
20/02/19  2:40p   27.5   27.9   27.5    32    9.3   0.0   ---   0.00   0.0   ---   27.5   26.6   26.6  1007.0  0.00   0.0   0.000   0.064   26.7    35    9.9   25.8   6.85 1.1565    41.7     0    2      0.0   10 
20/02/19  2:50p   27.6   27.6   27.4    34   10.3   0.0   ---   0.00   0.0   ---   27.6   26.8   26.8  1007.0  0.00   0.0   0.000   0.064   26.8    35   10.0   25.9   6.84 1.1559    41.7     0    2      0.0   10 
20/02/19  3:00p   27.8   27.8   27.6    28    7.6   0.0   ---   0.00   0.0   ---   27.8   26.6   26.6  1006.7  0.00   0.0   0.000   0.066   26.9    35   10.1   26.1   6.83 1.1551    41.7     0    2      0.0   10 
20/02/19  3:10p   28.2   28.2   27.8    35   11.3   0.0   ---   0.00   0.0   ---   28.2   27.5   27.5  1006.7  0.00   0.0   0.000   0.068   26.9    33    9.3   25.9   6.53 1.1559    41.7     0    2      0.0   10 
20/02/19  3:20p   28.6   28.6   28.2    29    8.8   0.0   ---   0.00   0.0   ---   28.6   27.5   27.5  1006.4  0.00   0.0   0.000   0.071   27.0    34    9.8   26.1   6.63 1.1546    41.7     0    2      0.0   10 
20/02/19  3:30p   28.7   28.7   28.6    27    7.9   0.0   ---   0.00   0.0   ---   28.7   27.5   27.5  1006.1  0.00   0.0   0.000   0.072   27.1    31    8.5   26.0   6.15 1.1552    41.7     0    2      0.0   10 
20/02/19  3:40p   28.8   28.9   28.7    31   10.0   0.0   ---   0.00   0.0   ---   28.8   28.0   28.0  1006.1  0.00   0.0   0.000   0.073   27.1    31    8.5   26.0   6.15 1.1552    41.7     0    2      0.0   10 
20/02/19  3:50p   28.6   28.8   28.6    28    8.3   0.0   ---   0.00   0.0   ---   28.6   27.4   27.4  1005.8  0.00   0.0   0.000   0.071   27.2    31    8.6   26.1   6.15 1.1544    41.7     0    2      0.0   10 
20/02/19  4:00p   28.5   28.6   28.5    28    8.2   0.0   ---   0.00   0.0   ---   28.5   27.3   27.3  1005.8  0.00   0.0   0.000   0.071   27.2    30    8.1   26.1   6.05 1.1548    41.7     0    2      0.0   10 
20/02/19  4:10p   28.7   28.7   28.5    28    8.4   0.0   ---   0.00   0.0   ---   28.7   27.6   27.6  1005.8  0.00   0.0   0.000   0.072   27.3    31    8.7   26.2   6.15 1.1539    41.7     0    2      0.0   10 
20/02/19  4:20p   28.6   28.8   28.6    27    7.8   0.0   ---   0.00   0.0   ---   28.6   27.3   27.3  1005.7  0.00   0.0   0.000   0.071   27.6    30    8.5   26.6   6.05 1.1527    41.7     0    2      0.0   10 
20/02/19  4:30p   28.2   28.6   28.2    30    8.9   0.0   ---   0.00   0.0   ---   28.2   27.1   27.1  1005.6  0.00   0.0   0.000   0.068   27.8    28    7.6   26.6   5.71 1.1524    41.7     0    2      0.0   10 
20/02/19  4:40p   28.5   28.5   28.2    28    8.2   0.0   ---   0.00   0.0   ---   28.5   27.3   27.3  1005.6  0.00   0.0   0.000   0.071   27.9    27    7.2   26.6   5.55 1.1526    41.7     0    2      0.0   10 
20/02/19  4:50p   28.4   28.5   28.4    28    8.1   0.0   ---   0.00   0.0   ---   28.4   27.2   27.2  1005.6  0.00   0.0   0.000   0.070   28.7    28    8.4   27.5   5.68 1.1486    41.7     0    2      0.0   10 
20/02/19  5:00p   28.1   28.4   28.1    28    7.8   0.0   ---   0.00   0.0   ---   28.1   26.8   26.8  1005.7  0.00   0.0   0.000   0.068   30.8    27    9.6   29.4   5.50 1.1396    41.7     0    2      0.0   10 
20/02/19  5:10p   27.6   28.1   27.6    28    7.5   0.0   ---   0.00   0.0   ---   27.6   26.4   26.4  1005.7  0.00   0.0   0.000   0.064   31.6    25    9.2   29.9   5.17 1.1369    41.7     0    2      0.0   10 
20/02/19  5:20p   27.3   27.6   27.3    29    7.7   0.0   ---   0.00   0.0   ---   27.3   26.2   26.2  1005.9  0.00   0.0   0.000   0.062   31.6    23    7.9   29.8   4.85 1.1382    41.7     0    2      0.0   10 
20/02/19  5:30p   26.8   27.3   26.8    30    7.7   0.0   ---   0.00   0.0   ---   26.8   25.7   25.7  1006.1  0.00   0.0   0.000   0.059   31.4    23    7.8   29.6   4.85 1.1395    41.7     0    2      0.0   10 
20/02/19  5:40p   26.5   26.8   26.5    28    6.5   0.0   ---   0.00   0.0   ---   26.5   25.3   25.3  1006.1  0.00   0.0   0.000   0.057   31.5    21    6.5   29.5   4.55 1.1400    41.7     0    2      0.0   10 
20/02/19  5:50p   26.4   26.5   26.4    29    6.9   0.0   ---   0.00   0.0   ---   26.4   25.3   25.3  1006.0  0.00   0.0   0.000   0.056   31.3    21    6.3   29.3   4.55 1.1409    41.7     0    2      0.0   10 
20/02/19  6:00p   26.2   26.4   26.2    28    6.2   0.0   ---   0.00   0.0   ---   26.2   25.1   25.1  1006.1  0.00   0.0   0.000   0.054   31.0    22    6.8   29.2   4.65 1.1417    41.7     0    2      0.0   10 
20/02/19  6:10p   25.9   26.2   25.9    29    6.5   0.0   ---   0.00   0.0   ---   25.9   24.9   24.9  1006.1  0.00   0.0   0.000   0.053   30.8    21    5.9   28.9   4.55 1.1431    41.7     0    2      0.0   10 
20/02/19  6:20p   25.9   25.9   25.9    27    5.5   0.0   ---   0.00   0.0   ---   25.9   24.8   24.8  1006.1  0.00   0.0   0.000   0.053   30.3    22    6.2   28.7   4.65 1.1445    41.7     0    2      0.0   10 
20/02/19  6:30p   25.9   25.9   25.9    30    7.0   0.0   ---   0.00   0.0   ---   25.9   24.9   24.9  1006.1  0.00   0.0   0.000   0.052   29.9    23    6.5   28.3   4.85 1.1461    41.7     0    2      0.0   10 
20/02/19  6:40p   25.7   25.9   25.7    29    6.3   0.0   ---   0.00   0.0   ---   25.7   24.7   24.7  1006.1  0.00   0.0   0.000   0.051   29.4    23    6.1   27.9   4.85 1.1481    41.7     0    2      0.0   10 
20/02/19  6:50p   25.4   25.7   25.4    29    6.1   0.0   ---   0.00   0.0   ---   25.4   24.6   24.6  1006.3  0.00   0.0   0.000   0.049   29.1    23    5.9   27.6   4.87 1.1497    41.7     0    2      0.0   10 
20/02/19  7:00p   25.4   25.4   25.4    28    5.6   0.0   ---   0.00   0.0   ---   25.4   24.6   24.6  1006.5  0.00   0.0   0.000   0.049   28.9    24    6.3   27.4   5.07 1.1504    41.7     0    2      0.0   10 
20/02/19  7:10p   25.4   25.4   25.4    28    5.5   0.0   ---   0.00   0.0   ---   25.4   24.6   24.6  1006.5  0.00   0.0   0.000   0.049   28.7    24    6.1   27.2   5.08 1.1514    41.7     0    2      0.0   10 
20/02/19  7:20p   24.9   25.4   24.9    28    5.2   0.0   ---   0.00   0.0   ---   24.9   24.2   24.2  1006.5  0.00   0.0   0.000   0.046   28.4    24    5.9   26.9   5.09 1.1524    41.7     0    2      0.0   10 
20/02/19  7:30p   24.6   24.9   24.6    29    5.3   0.0   ---   0.00   0.0   ---   24.6   23.7   23.7  1006.8  0.00   0.0   0.000   0.043   28.2    24    5.7   26.7   5.09 1.1538    41.7     0    2      0.0   10 
20/02/19  7:40p   24.1   24.6   24.1    28    4.5   0.0   ---   0.00   0.0   ---   24.1   23.2   23.2  1006.8  0.00   0.0   0.000   0.040   28.0    24    5.5   26.6   5.10 1.1548    41.7     0    2      0.0   10 
20/02/19  7:50p   23.7   24.1   23.7    29    4.6   0.0   ---   0.00   0.0   ---   23.7   22.7   22.7  1007.1  0.00   0.0   0.000   0.037   27.8    23    4.8   26.3   4.97 1.1564    41.7     0    2      0.0   10 
20/02/19  8:00p   23.2   23.6   23.2    28    3.7   0.0   ---   0.00   0.0   ---   23.2   22.1   22.1  1007.5  0.00   0.0   0.000   0.034   27.6    22    4.0   26.0   4.78 1.1582    41.7     0    2      0.0   10 
20/02/19  8:10p   22.8   23.1   22.8    27    2.8   0.0   ---   0.00   0.0   ---   22.8   21.4   21.4  1007.5  0.00   0.0   0.000   0.031   27.4    21    3.1   25.7   4.70 1.1596    41.7     0    2      0.0   10 
20/02/19  8:20p   22.6   22.8   22.6    27    2.6   0.0   ---   0.00   0.0   ---   22.6   21.0   21.0  1007.7  0.00   0.0   0.000   0.029   27.2    21    2.9   25.5   4.71 1.1607    41.7     0    2      0.0   10 
20/02/19  8:30p   22.4   22.6   22.4    43    9.2   0.0   ---   0.00   0.0   ---   22.4   21.7   21.7  1008.2  0.00   0.0   0.000   0.029   27.0    20    2.1   25.3   4.53 1.1625    41.7     0    2      0.0   10 
20/02/19  8:40p   22.3   22.4   22.3    59   13.9   0.0   ---   0.00   0.0   ---   22.3   22.2   22.2  1008.2  0.00   0.0   0.000   0.027   26.7    34    9.5   25.8   6.65 1.1583    41.7     0    2      0.0   10 
20/02/19  8:50p   21.7   22.2   21.7    63   14.3   0.0   ---   0.00   0.0   ---   21.7   21.5   21.5  1008.5  0.00   0.0   0.000   0.023   26.3    39   11.3   25.8   7.46 1.1582    41.7     0    2      0.0   10 
20/02/19  9:00p   21.2   21.7   21.2    66   14.6   0.0   ---   0.00   0.0   ---   21.2   21.1   21.1  1009.0  0.00   0.0   0.000   0.020   26.1    41   11.8   25.7   7.75 1.1593    41.7     0    2      0.0   10 
20/02/19  9:10p   20.8   21.2   20.8    68   14.7   0.0   ---   0.00   0.0   ---   20.8   20.8   20.8  1009.0  0.00   0.0   0.000   0.017   26.3    40   11.6   25.8   7.56 1.1586    41.7     0    2      0.0   10 
20/02/19  9:20p   20.4   20.8   20.4    70   14.7   0.0   ---   0.00   0.0   ---   20.4   20.7   20.7  1009.1  0.00   0.0   0.000   0.014   26.3    39   11.3   25.8   7.46 1.1589    41.7     0    2      0.0   10 
20/02/19  9:30p   20.0   20.4   20.0    71   14.6   0.0   ---   0.00   0.0   ---   20.0   20.4   20.4  1009.6  0.00   0.0   0.000   0.012   26.6    39   11.5   25.9   7.45 1.1584    41.7     0    2      0.0   10 
20/02/19  9:40p   19.8   20.0   19.8    72   14.6   0.0   ---   0.00   0.0   ---   19.8   20.2   20.2  1009.6  0.00   0.0   0.000   0.010   26.6    38   11.1   25.9   7.25 1.1588    41.7     0    2      0.0   10 
20/02/19  9:50p   19.6   19.8   19.6    74   14.8   0.0   ---   0.00   0.0   ---   19.6   19.9   19.9  1010.1  0.00   0.0   0.000   0.008   26.6    38   11.1   25.9   7.25 1.1594    41.7     0    2      0.0   10 
20/02/19 10:00p   19.3   19.6   19.3    75   14.7   0.0   ---   0.00   0.0   ---   19.3   19.6   19.6  1010.7  0.00   0.0   0.000   0.007   26.6    38   11.1   25.9   7.25 1.1601    41.7     0    2      0.0   10 
20/02/19 10:10p   19.2   19.3   19.2    75   14.6   0.0   ---   0.00   0.0   ---   19.2   19.5   19.5  1010.7  0.00   0.0   0.000   0.006   26.7    38   11.2   26.0   7.25 1.1596    41.7     0    2      0.0   10 
20/02/19 10:20p   19.2   19.2   19.2    75   14.6   0.0   ---   0.00   0.0   ---   19.2   19.5   19.5  1010.7  0.00   0.0   0.000   0.006   26.8    38   11.3   26.1   7.25 1.1590    41.7     0    2      0.0   10 
20/02/19 10:30p   19.0   19.2   19.0    76   14.7   0.0   ---   0.00   0.0   ---   19.0   19.3   19.3  1011.0  0.00   0.0   0.000   0.005   26.8    38   11.3   26.1   7.25 1.1593    41.7     0    2      0.0   10 
20/02/19 10:40p   18.9   19.0   18.9    76   14.6   0.0   ---   0.00   0.0   ---   18.9   19.3   19.3  1011.0  0.00   0.0   0.000   0.004   26.8    38   11.3   26.1   7.25 1.1593    41.7     0    2      0.0   10 
20/02/19 10:50p   18.7   18.9   18.7    77   14.6   0.0   ---   0.00   0.0   ---   18.7   19.1   19.1  1011.0  0.00   0.0   0.000   0.003   26.7    38   11.2   26.0   7.25 1.1600    41.7     0    2      0.0   10 
20/02/19 11:00p   18.7   18.7   18.7    78   14.8   0.0   ---   0.00   0.0   ---   18.7   19.1   19.1  1011.2  0.00   0.0   0.000   0.002   26.7    38   11.2   26.0   7.25 1.1602    41.7     0    2      0.0   10 
20/02/19 11:10p   18.5   18.7   18.5    78   14.6   0.0   ---   0.00   0.0   ---   18.5   18.8   18.8  1011.2  0.00   0.0   0.000   0.001   26.6    38   11.1   25.9   7.25 1.1607    41.7     0    2      0.0   10 
20/02/19 11:20p   18.3   18.5   18.3    78   14.4   0.0   ---   0.00   0.0   ---   18.3   18.6   18.6  1011.2  0.00   0.0   0.000   0.000   26.4    39   11.4   25.9   7.46 1.1608    41.7     0    2      0.0   10 
20/02/19 11:30p   18.1   18.3   18.1    79   14.4   0.0   ---   0.00   0.0   ---   18.1   18.4   18.4  1011.4  0.00   0.0   0.002   0.000   26.4    39   11.4   25.9   7.46 1.1610    41.7     0    2      0.0   10 
20/02/19 11:40p   18.0   18.1   18.0    78   14.1   0.0   ---   0.00   0.0   ---   18.0   18.2   18.2  1011.4  0.00   0.0   0.002   0.000   26.3    39   11.3   25.8   7.46 1.1615    41.7     0    2      0.0   10 
20/02/19 11:50p   18.0   18.0   17.9    78   14.1   0.0   ---   0.00   0.0   ---   18.0   18.2   18.2  1011.5  0.00   0.0   0.002   0.000   26.3    39   11.2   25.8   7.46 1.1619    41.7     0    2      0.0   10 
21/02/19 12:00a   18.0   18.0   18.0    78   14.1   0.0   ---   0.00   0.0   ---   18.0   18.2   18.2  1011.6  0.00   0.0   0.002   0.000   26.3    39   11.2   25.8   7.46 1.1620    41.7     0    2      0.0   10 
21/02/19 12:10a   17.9   18.0   17.9    78   14.1   0.0   ---   0.00   0.0   ---   17.9   18.2   18.2  1011.6  0.00   0.0   0.003   0.000   26.2    39   11.1   25.7   7.47 1.1625    41.7     0    2      0.0   10 
21/02/19 12:20a   17.8   17.9   17.8    78   13.9   0.0   ---   0.00   0.0   ---   17.8   18.1   18.1  1011.3  0.00   0.0   0.003   0.000   26.1    39   11.0   25.6   7.47 1.1628    41.7     0    2      0.0   10 
21/02/19 12:30a   17.8   17.8   17.8    78   13.9   0.0   ---   0.00   0.0   ---   17.8   18.1   18.1  1011.3  0.00   0.0   0.003   0.000   26.1    39   11.0   25.6   7.47 1.1628    41.7     0    2      0.0   10 
21/02/19 12:40a   17.8   17.8   17.8    78   13.9   0.0   ---   0.00   0.0   ---   17.8   17.9   17.9  1011.3  0.00   0.0   0.004   0.000   26.1    39   11.0   25.6   7.47 1.1628    41.7     0    2      0.0   10 
21/02/19 12:50a   17.8   17.8   17.8    78   13.9   0.0   ---   0.00   0.0   ---   17.8   17.9   17.9  1011.2  0.00   0.0   0.004   0.000   25.9    40   11.3   25.5   7.58 1.1629    41.7     0    2      0.0   10 
21/02/19  1:00a   17.8   17.8   17.8    78   13.9   0.0   ---   0.00   0.0   ---   17.8   17.9   17.9  1011.2  0.00   0.0   0.004   0.000   25.8    40   11.2   25.3   7.58 1.1633    41.7     0    2      0.0   10 
21/02/19  1:10a   17.6   17.8   17.6    78   13.7   0.0   ---   0.00   0.0   ---   17.6   17.7   17.7  1011.2  0.00   0.0   0.005   0.000   25.8    40   11.2   25.3   7.58 1.1633    41.7     0    2      0.0   10 
21/02/19  1:20a   17.5   17.6   17.5    78   13.6   0.0   ---   0.00   0.0   ---   17.5   17.6   17.6  1010.7  0.00   0.0   0.006   0.000   25.7    40   11.1   25.2   7.58 1.1633    41.7     0    2      0.0   10 
21/02/19  1:30a   17.3   17.5   17.3    78   13.5   0.0   ---   0.00   0.0   ---   17.3   17.4   17.4  1010.8  0.00   0.0   0.007   0.000   25.7    40   11.1   25.2   7.58 1.1635    41.7     0    2      0.0   10 
21/02/19  1:40a   17.2   17.3   17.2    78   13.4   0.0   ---   0.00   0.0   ---   17.2   17.3   17.3  1010.8  0.00   0.0   0.008   0.000   25.7    40   11.1   25.2   7.58 1.1635    41.7     0    2      0.0   10 
21/02/19  1:50a   17.1   17.2   17.1    78   13.2   0.0   ---   0.00   0.0   ---   17.1   17.2   17.2  1010.8  0.00   0.0   0.008   0.000   25.6    40   11.0   25.1   7.59 1.1639    41.7     0    2      0.0   10 
21/02/19  2:00a   17.1   17.1   17.1    79   13.4   0.0   ---   0.00   0.0   ---   17.1   17.2   17.2  1010.7  0.00   0.0   0.009   0.000   25.6    40   11.0   25.1   7.59 1.1641    41.7     0    2      0.0   10 
21/02/19  2:10a   16.9   17.1   16.9    79   13.3   0.0   ---   0.00   0.0   ---   16.9   17.1   17.1  1010.7  0.00   0.0   0.010   0.000   25.6    40   11.0   25.1   7.59 1.1641    41.7     0    2      0.0   10 
21/02/19  2:20a   16.9   16.9   16.9    79   13.3   0.0   ---   0.00   0.0   ---   16.9   17.1   17.1  1010.5  0.00   0.0   0.010   0.000   25.6    40   11.0   25.1   7.59 1.1639    41.7     0    2      0.0   10 
21/02/19  2:30a   16.9   16.9   16.9    79   13.3   0.0   ---   0.00   0.0   ---   16.9   17.1   17.1  1010.5  0.00   0.0   0.010   0.000   25.4    40   10.9   24.9   7.59 1.1644    41.7     0    2      0.0   10 
21/02/19  2:40a   16.9   16.9   16.9    79   13.3   0.0   ---   0.00   0.0   ---   16.9   17.1   17.1  1010.5  0.00   0.0   0.010   0.000   25.4    40   10.9   24.9   7.59 1.1644    41.7     0    2      0.0   10 
21/02/19  2:50a   16.9   16.9   16.9    79   13.3   0.0   ---   0.00   0.0   ---   16.9   17.1   17.1  1010.4  0.00   0.0   0.010   0.000   25.4    40   10.9   24.9   7.59 1.1643    41.7     0    2      0.0   10 
21/02/19  3:00a   16.9   16.9   16.9    79   13.3   0.0   ---   0.00   0.0   ---   16.9   17.1   17.1  1010.5  0.00   0.0   0.010   0.000   25.3    41   11.1   24.9   7.75 1.1646    41.7     0    2      0.0   10 
21/02/19  3:10a   16.9   16.9   16.9    79   13.3   0.0   ---   0.00   0.0   ---   16.9   17.1   17.1  1010.5  0.00   0.0   0.010   0.000   25.3    41   11.1   24.9   7.75 1.1646    41.7     0    2      0.0   10 
21/02/19  3:20a   16.9   16.9   16.9    79   13.3   0.0   ---   0.00   0.0   ---   16.9   17.1   17.1  1010.4  0.00   0.0   0.010   0.000   25.2    41   11.0   24.8   7.75 1.1650    41.7     0    2      0.0   10 
21/02/19  3:30a   16.9   16.9   16.9    79   13.2   0.0   ---   0.00   0.0   ---   16.9   17.0   17.0  1010.5  0.00   0.0   0.010   0.000   25.2    41   11.0   24.8   7.75 1.1651    41.7     0    2      0.0   10 
21/02/19  3:40a   16.8   16.9   16.8    79   13.1   0.0   ---   0.00   0.0   ---   16.8   16.8   16.8  1010.5  0.00   0.0   0.011   0.000   25.2    41   11.0   24.8   7.75 1.1651    41.7     0    2      0.0   10 
21/02/19  3:50a   16.8   16.8   16.8    79   13.1   0.0   ---   0.00   0.0   ---   16.8   16.8   16.8  1010.6  0.00   0.0   0.011   0.000   25.2    41   11.0   24.8   7.75 1.1652    41.7     0    2      0.0   10 
21/02/19  4:00a   16.8   16.8   16.8    79   13.1   0.0   ---   0.00   0.0   ---   16.8   16.8   16.8  1010.7  0.00   0.0   0.011   0.000   25.2    41   11.0   24.7   7.75 1.1656    41.7     0    2      0.0   10 
21/02/19  4:10a   16.9   16.9   16.8    79   13.2   0.0   ---   0.00   0.0   ---   16.9   17.0   17.0  1010.7  0.00   0.0   0.010   0.000   25.2    41   11.0   24.7   7.75 1.1656    41.7     0    2      0.0   10 
21/02/19  4:20a   16.9   16.9   16.9    79   13.2   0.0   ---   0.00   0.0   ---   16.9   17.0   17.0  1010.7  0.00   0.0   0.010   0.000   25.2    41   11.0   24.7   7.75 1.1656    41.7     0    2      0.0   10 
21/02/19  4:30a   16.9   16.9   16.9    79   13.3   0.0   ---   0.00   0.0   ---   16.9   17.1   17.1  1010.7  0.00   0.0   0.010   0.000   25.1    41   10.9   24.7   7.75 1.1661    41.7     0    2      0.0   10 
21/02/19  4:40a   16.9   16.9   16.9    79   13.3   0.0   ---   0.00   0.0   ---   16.9   17.1   17.1  1010.7  0.00   0.0   0.010   0.000   24.9    41   10.8   24.6   7.75 1.1666    41.7     0    2      0.0   10 
21/02/19  4:50a   16.9   16.9   16.9    79   13.2   0.0   ---   0.00   0.0   ---   16.9   17.0   17.0  1010.7  0.00   0.0   0.010   0.000   24.9    41   10.8   24.6   7.75 1.1667    41.7     0    2      0.0   10 
21/02/19  5:00a   16.8   16.9   16.8    79   13.1   0.0   ---   0.00   0.0   ---   16.8   16.8   16.8  1010.8  0.00   0.0   0.011   0.000   24.8    41   10.7   24.4   7.75 1.1673    41.7     0    2      0.0   10 
21/02/19  5:10a   16.7   16.8   16.7    79   13.1   0.0   ---   0.00   0.0   ---   16.7   16.8   16.8  1010.8  0.00   0.0   0.011   0.000   24.8    41   10.7   24.4   7.75 1.1673    41.7     0    2      0.0   10 
21/02/19  5:20a   16.6   16.7   16.6    80   13.1   0.0   ---   0.00   0.0   ---   16.6   16.7   16.7  1011.0  0.00   0.0   0.012   0.000   24.7    41   10.6   24.3   7.75 1.1680    41.7     0    2      0.0   10 
21/02/19  5:30a   16.6   16.7   16.6    80   13.1   0.0   ---   0.00   0.0   ---   16.6   16.7   16.7  1011.2  0.00   0.0   0.012   0.000   24.7    41   10.6   24.3   7.75 1.1683    41.7     0    2      0.0   10 
21/02/19  5:40a   16.6   16.7   16.6    80   13.1   0.0   ---   0.00   0.0   ---   16.6   16.7   16.7  1011.2  0.00   0.0   0.012   0.000   24.7    41   10.6   24.3   7.75 1.1683    41.7     0    2      0.0   10 
21/02/19  5:50a   16.6   16.6   16.6    80   13.1   0.0   ---   0.00   0.0   ---   16.6   16.7   16.7  1011.4  0.00   0.0   0.012   0.000   24.7    41   10.5   24.2   7.75 1.1688    41.7     0    2      0.0   10 
21/02/19  6:00a   16.6   16.6   16.6    80   13.1   0.0   ---   0.00   0.0   ---   16.6   16.7   16.7  1011.4  0.00   0.0   0.012   0.000   24.7    41   10.5   24.2   7.75 1.1688    41.7     0    2      0.0   10 
21/02/19  6:10a   16.7   16.7   16.6    79   13.1   0.0   ---   0.00   0.0   ---   16.7   16.8   16.8  1011.4  0.00   0.0   0.011   0.000   24.7    42   10.9   24.3   7.92 1.1684    41.7     0    2      0.0   10 
21/02/19  6:20a   16.6   16.7   16.6    79   13.0   0.0   ---   0.00   0.0   ---   16.6   16.7   16.7  1011.5  0.00   0.0   0.012   0.000   24.6    42   10.8   24.2   7.93 1.1691    41.7     0    2      0.0   10 
21/02/19  6:30a   16.5   16.6   16.5    79   12.8   0.0   ---   0.00   0.0   ---   16.5   16.6   16.6  1011.7  0.00   0.0   0.013   0.000   24.6    42   10.8   24.2   7.93 1.1693    41.7     0    2      0.0   10 
21/02/19  6:40a   16.5   16.5   16.5    79   12.8   0.0   ---   0.00   0.0   ---   16.5   16.6   16.6  1011.7  0.00   0.0   0.013   0.000   24.4    42   10.7   24.1   7.93 1.1699    41.7     0    2      0.0   10 
21/02/19  6:50a   16.4   16.5   16.4    79   12.8   0.0   ---   0.00   0.0   ---   16.4   16.4   16.4  1011.9  0.00   0.0   0.013   0.000   24.3    42   10.6   23.9   7.93 1.1706    41.7     0    2      0.0   10 
21/02/19  7:00a   16.3   16.4   16.3    79   12.7   0.0   ---   0.00   0.0   ---   16.3   16.3   16.3  1012.2  0.00   0.0   0.014   0.000   24.3    42   10.6   23.9   7.93 1.1710    41.7     0    2      0.0   10 
21/02/19  7:10a   16.4   16.4   16.3    80   13.0   0.0   ---   0.00   0.0   ---   16.4   16.5   16.5  1012.2  0.00   0.0   0.013   0.000   24.3    42   10.6   23.9   7.93 1.1710    41.7     0    2      0.0   10 
21/02/19  7:20a   16.4   16.4   16.4    79   12.8   0.0   ---   0.00   0.0   ---   16.4   16.4   16.4  1012.4  0.00   0.0   0.013   0.000   24.3    43   10.9   24.0   8.05 1.1708    41.7     0    2      0.0   10 
21/02/19  7:30a   16.5   16.5   16.4    80   13.0   0.0   ---   0.00   0.0   ---   16.5   16.6   16.6  1012.5  0.00   0.0   0.013   0.000   24.4    42   10.7   24.1   7.93 1.1708    41.7     0    2      0.0   10 
21/02/19  7:40a   16.7   16.7   16.5    80   13.3   0.0   ---   0.00   0.0   ---   16.7   16.8   16.8  1012.5  0.00   0.0   0.011   0.000   24.4    42   10.7   24.1   7.93 1.1708    41.7     0    2      0.0   10 
21/02/19  7:50a   16.7   16.7   16.7    79   13.1   0.0   ---   0.00   0.0   ---   16.7   16.8   16.8  1012.7  0.00   0.0   0.011   0.000   24.4    42   10.7   24.1   7.93 1.1711    41.7     0    2      0.0   10 
21/02/19  8:00a   16.9   16.9   16.8    79   13.2   0.0   ---   0.00   0.0   ---   16.9   17.0   17.0  1013.0  0.00   0.0   0.010   0.000   24.6    42   10.8   24.2   7.93 1.1709    41.7     0    2      0.0   10 
21/02/19  8:10a   17.1   17.1   16.9    78   13.2   0.0   ---   0.00   0.0   ---   17.1   17.2   17.2  1013.0  0.00   0.0   0.008   0.000   24.7    42   10.9   24.3   7.92 1.1704    41.7     0    2      0.0   10 
21/02/19  8:20a   17.4   17.4   17.1    76   13.1   0.0   ---   0.00   0.0   ---   17.4   17.4   17.4  1013.4  0.00   0.0   0.007   0.000   24.8    42   11.0   24.4   7.92 1.1700    41.7     0    2      0.0   10